| time (UTC) | temp C | wind direction | speed KPH | gust KPH | rain 1hr cm | rain 24hr cm | rain mn cm | humidity % | barometer mb |
| 20260505153027 | 21 | 206 | 0.0 | 6.4 | 0.00 | 0.05 | 0.00 | 46 | 1002.1 |
| 20260505151525 | 21 | 170 | 1.6 | 8.0 | 0.00 | 0.05 | 0.00 | 47 | 1002.2 |
| 20260505124526 | 14 | 171 | 3.2 | 11.3 | 0.00 | 0.05 | 0.00 | 61 | 1002.7 |
| 20260505123045 | 11 | 179 | 1.6 | 4.8 | 0.00 | 0.05 | 0.00 | 75 | 1002.7 |
| 20260505121518 | 8 | 171 | 0.0 | 0.0 | 0.00 | 0.05 | 0.00 | 82 | 1002.7 |
| 20260505120031 | 7 | 171 | 0.0 | 3.2 | 0.00 | 0.05 | 0.00 | 84 | 1002.8 |
| 20260505114530 | 6 | 85 | 0.0 | 3.2 | 0.00 | 0.05 | 0.00 | 85 | 1002.8 |
| 20260505113028 | 5 | 207 | 0.0 | 1.6 | 0.00 | 0.05 | 0.00 | 86 | 1003.1 |
| 20260505111529 | 5 | 228 | 0.0 | 1.6 | 0.00 | 0.05 | 0.00 | 85 | 1003.1 |
| 20260505101526 | 2 | 6 | 0.0 | 1.6 | 0.00 | 0.05 | 0.00 | 92 | 1002.8 |
| 20260505100032 | 2 | 271 | 0.0 | 0.0 | 0.00 | 0.05 | 0.00 | 92 | 1002.9 |
| 20260505094530 | 2 | 271 | 0.0 | 1.6 | 0.00 | 0.05 | 0.00 | 92 | 1003.2 |
| 20260505093024 | 2 | 271 | 0.0 | 0.0 | 0.00 | 0.05 | 0.00 | 92 | 1003.1 |
| 20260505091534 | 2 | 271 | 0.0 | 1.6 | 0.00 | 0.05 | 0.00 | 92 | 1003.1 |
| 20260505090043 | 2 | 255 | 0.0 | 1.6 | 0.00 | 0.05 | 0.00 | 92 | 1003.2 |
| 20260505084517 | 2 | 231 | 0.0 | 1.6 | 0.00 | 0.05 | 0.00 | 92 | 1003.4 |
| 20260505083021 | 2 | 213 | 0.0 | 0.0 | 0.00 | 0.05 | 0.00 | 92 | 1003.3 |
| 20260505081534 | 2 | 213 | 0.0 | 1.6 | 0.00 | 0.05 | 0.00 | 92 | 1003.3 |
| 20260505080008 | 2 | 206 | 0.0 | 1.6 | 0.00 | 0.05 | 0.00 | 92 | 1003.4 |
| 20260505074510 | 3 | 139 | 0.0 | 1.6 | 0.00 | 0.05 | 0.00 | 92 | 1003.5 |
| 20260505073017 | 3 | 139 | 0.0 | 0.0 | 0.00 | 0.05 | 0.00 | 92 | 1003.6 |
| 20260505071518 | 3 | 139 | 0.0 | 1.6 | 0.00 | 0.05 | 0.00 | 92 | 1003.6 |
| 20260505070026 | 3 | 139 | 0.0 | 0.0 | 0.00 | 0.05 | 0.00 | 92 | 1003.7 |
| 20260505064527 | 3 | 139 | 0.0 | 0.0 | 0.00 | 0.05 | 0.00 | 91 | 1003.7 |
| 20260505063011 | 3 | 139 | 0.0 | 0.0 | 0.00 | 0.05 | 0.00 | 91 | 1003.6 |
| 20260505061517 | 3 | 139 | 0.0 | 0.0 | 0.00 | 0.05 | 0.00 | 91 | 1003.6 |
| 20260505060025 | 3 | 139 | 0.0 | 0.0 | 0.00 | 0.05 | 0.00 | 91 | 1003.6 |
| 20260505054526 | 3 | 139 | 0.0 | 0.0 | 0.00 | 0.05 | 0.00 | 90 | 1003.6 |
| 20260505053026 | 4 | 139 | 0.0 | 0.0 | 0.00 | 0.05 | 0.00 | 90 | 1003.4 |
| 20260505051514 | 4 | 139 | 0.0 | 0.0 | 0.00 | 0.05 | 0.00 | 89 | 1003.5 |
| 20260505041545 | 5 | 139 | 0.0 | 0.0 | 0.00 | 0.05 | 0.00 | 88 | 1003.5 |
| 20260505040016 | 5 | 139 | 0.0 | 0.0 | 0.00 | 0.05 | 0.00 | 87 | 1003.3 |
| 20260505034519 | 6 | 139 | 0.0 | 0.0 | 0.00 | 0.05 | 0.05 | 87 | 1003.3 |
| 20260505033024 | 6 | 139 | 0.0 | 0.0 | 0.00 | 0.05 | 0.05 | 86 | 1003.1 |
| 20260505031532 | 6 | 139 | 0.0 | 0.0 | 0.00 | 0.05 | 0.05 | 85 | 1003.1 |
| 20260505030035 | 7 | 139 | 0.0 | 0.0 | 0.00 | 0.05 | 0.05 | 85 | 1003.1 |
| 20260505024518 | 7 | 139 | 0.0 | 0.0 | 0.00 | 0.05 | 0.05 | 84 | 1003.2 |
| 20260505023025 | 7 | 139 | 0.0 | 0.0 | 0.00 | 0.05 | 0.05 | 82 | 1003.2 |
| 20260505021528 | 8 | 139 | 0.0 | 0.0 | 0.00 | 0.05 | 0.05 | 79 | 1003.4 |
| 20260505020026 | 8 | 139 | 0.0 | 0.0 | 0.00 | 0.05 | 0.05 | 78 | 1003.4 |
| 20260505014529 | 9 | 139 | 0.0 | 0.0 | 0.00 | 0.05 | 0.05 | 77 | 1003.4 |
| 20260505013020 | 10 | 139 | 0.0 | 0.0 | 0.00 | 0.05 | 0.05 | 74 | 1003.2 |
| 20260505011528 | 10 | 139 | 0.0 | 1.6 | 0.00 | 0.05 | 0.05 | 73 | 1003.2 |
| 20260505010025 | 10 | 139 | 0.0 | 0.0 | 0.00 | 0.05 | 0.05 | 71 | 1002.9 |
| 20260505004534 | 11 | 139 | 0.0 | 0.0 | 0.00 | 0.05 | 0.05 | 69 | 1002.6 |
| 20260505003030 | 11 | 139 | 0.0 | 1.6 | 0.00 | 0.05 | 0.05 | 68 | 1002.5 |
| 20260505001518 | 12 | 139 | 0.0 | 1.6 | 0.00 | 0.05 | 0.05 | 66 | 1002.3 |
| 20260505000029 | 13 | 139 | 0.0 | 0.0 | 0.00 | 0.05 | 0.05 | 61 | 1001.9 |
| 20260504234508 | 14 | 139 | 0.0 | 1.6 | 0.00 | 0.05 | 0.05 | 57 | 1001.7 |
| 20260504233010 | 15 | 139 | 0.0 | 1.6 | 0.00 | 0.05 | 0.05 | 53 | 1001.5 |
| 20260504231516 | 15 | 210 | 0.0 | 1.6 | 0.00 | 0.05 | 0.05 | 49 | 1001.3 |
| 20260504230022 | 16 | 226 | 0.0 | 3.2 | 0.00 | 0.05 | 0.05 | 48 | 1001.2 |
| 20260504224525 | 16 | 229 | 1.6 | 3.2 | 0.00 | 0.05 | 0.05 | 45 | 1001.0 |
| 20260504223006 | 16 | 204 | 0.0 | 3.2 | 0.00 | 0.05 | 0.05 | 47 | 1001.0 |
| 20260504221516 | 16 | 103 | 0.0 | 4.8 | 0.00 | 0.05 | 0.05 | 46 | 1001.1 |
| 20260504220016 | 17 | 223 | 0.0 | 3.2 | 0.00 | 0.05 | 0.05 | 45 | 1001.0 |
| 20260504214523 | 17 | 181 | 1.6 | 3.2 | 0.00 | 0.05 | 0.05 | 43 | 1001.2 |
| 20260504213045 | 17 | 13 | 0.0 | 3.2 | 0.00 | 0.05 | 0.05 | 44 | 1001.2 |
| 20260504211516 | 17 | 224 | 1.6 | 9.7 | 0.00 | 0.05 | 0.05 | 43 | 1001.2 |
| 20260504210015 | 16 | 212 | 1.6 | 14.5 | 0.00 | 0.05 | 0.05 | 45 | 1001.4 |
| 20260504204519 | 16 | 258 | 3.2 | 14.5 | 0.00 | 0.05 | 0.05 | 45 | 1001.5 |
| 20260504203024 | 16 | 56 | 1.6 | 14.5 | 0.00 | 0.05 | 0.05 | 45 | 1001.5 |
| 20260504201531 | 16 | 36 | 4.8 | 17.7 | 0.00 | 0.05 | 0.05 | 47 | 1001.6 |
| 20260504200012 | 16 | 266 | 1.6 | 11.3 | 0.00 | 0.05 | 0.05 | 47 | 1001.6 |
| 20260504194518 | 17 | 44 | 3.2 | 12.9 | 0.00 | 0.05 | 0.05 | 46 | 1001.7 |
| 20260504193021 | 16 | 20 | 3.2 | 11.3 | 0.00 | 0.05 | 0.05 | 50 | 1001.9 |
| 20260504191525 | 16 | 37 | 3.2 | 16.1 | 0.00 | 0.05 | 0.05 | 52 | 1002.1 |
| 20260504190028 | 16 | 182 | 3.2 | 12.9 | 0.00 | 0.05 | 0.05 | 53 | 1002.1 |
| 20260504184515 | 15 | 172 | 1.6 | 6.4 | 0.00 | 0.05 | 0.05 | 55 | 1002.2 |
| 20260504183021 | 15 | 35 | 3.2 | 11.3 | 0.00 | 0.05 | 0.05 | 56 | 1002.2 |
| 20260504181523 | 14 | 217 | 1.6 | 6.4 | 0.00 | 0.05 | 0.05 | 58 | 1002.4 |
| 20260504180026 | 13 | 221 | 1.6 | 11.3 | 0.00 | 0.05 | 0.05 | 64 | 1002.5 |
| 20260504174526 | 12 | 170 | 1.6 | 12.9 | 0.00 | 0.05 | 0.05 | 64 | 1002.7 |
| 20260504173023 | 11 | 219 | 1.6 | 8.0 | 0.00 | 0.05 | 0.05 | 69 | 1002.6 |
| 20260504171523 | 10 | 208 | 3.2 | 14.5 | 0.00 | 0.05 | 0.05 | 71 | 1002.6 |